TimePST,TemperatureF,Dew PointF,Humidity,Sea Level PressureIn,VisibilityMPH,Wind Direction,Wind SpeedMPH,Gust SpeedMPH,PrecipitationIn,Events,Conditions,WindDirDegrees,DateUTC
12:36 AM,46.4,44.6,93,30.13,10.0,NNW,5.8,-,N/A,,Mostly Cloudy,340,2013-02-05 08:36:00
12:45 AM,46.4,44.6,93,30.13,10.0,Calm,Calm,-,N/A,,Mostly Cloudy,0,2013-02-05 08:45:00
12:56 AM,46.9,45.0,93,30.13,9.0,Calm,Calm,-,N/A,,Overcast,0,2013-02-05 08:56:00
1:27 AM,46.4,42.8,87,30.12,8.0,Calm,Calm,-,N/A,,Mostly Cloudy,0,2013-02-05 09:27:00
1:56 AM,46.9,45.0,93,30.13,8.0,Calm,Calm,-,N/A,,Overcast,0,2013-02-05 09:56:00
2:22 AM,46.4,44.6,93,30.12,9.0,Calm,Calm,-,N/A,,Overcast,0,2013-02-05 10:22:00
2:29 AM,46.4,44.6,93,30.12,9.0,Calm,Calm,-,N/A,,Overcast,0,2013-02-05 10:29:00
2:56 AM,48.0,45.0,89,30.13,10.0,West,3.5,-,N/A,,Overcast,260,2013-02-05 10:56:00
3:56 AM,48.0,45.0,89,30.12,10.0,Calm,Calm,-,N/A,,Overcast,0,2013-02-05 11:56:00
4:56 AM,48.0,43.0,83,30.11,10.0,Calm,Calm,-,N/A,,Overcast,0,2013-02-05 12:56:00
5:54 AM,48.2,42.8,82,30.10,10.0,West,3.5,-,N/A,,Overcast,280,2013-02-05 13:54:00
5:56 AM,48.0,42.1,80,30.11,10.0,WNW,3.5,-,N/A,,Overcast,290,2013-02-05 13:56:00
6:56 AM,48.0,41.0,77,30.12,10.0,WSW,3.5,-,N/A,,Overcast,240,2013-02-05 14:56:00
7:56 AM,48.9,42.1,77,30.14,10.0,SW,3.5,-,N/A,,Overcast,230,2013-02-05 15:56:00
8:56 AM,50.0,41.0,71,30.16,10.0,NW,6.9,-,N/A,,Overcast,310,2013-02-05 16:56:00
9:56 AM,51.1,41.0,68,30.16,10.0,West,5.8,-,N/A,,Overcast,260,2013-02-05 17:56:00
10:56 AM,53.1,43.0,69,30.15,10.0,NNW,5.8,-,N/A,,Overcast,340,2013-02-05 18:56:00
11:56 AM,54.0,45.0,72,30.15,10.0,North,6.9,-,N/A,,Overcast,10,2013-02-05 19:56:00
12:31 PM,53.6,44.6,72,30.13,10.0,North,6.9,-,N/A,,Overcast,360,2013-02-05 20:31:00
12:56 PM,54.0,45.0,72,30.13,10.0,North,9.2,-,N/A,,Overcast,350,2013-02-05 20:56:00
1:56 PM,55.9,44.1,64,30.12,10.0,WNW,9.2,18.4,N/A,,Mostly Cloudy,290,2013-02-05 21:56:00
2:56 PM,55.9,45.0,67,30.12,10.0,WNW,9.2,-,N/A,,Overcast,300,2013-02-05 22:56:00
3:15 PM,55.4,44.6,67,30.11,10.0,NW,9.2,-,N/A,,Overcast,320,2013-02-05 23:15:00
3:56 PM,57.0,45.0,64,30.12,10.0,NW,10.4,-,N/A,,Overcast,320,2013-02-05 23:56:00
4:56 PM,55.0,45.0,69,30.13,10.0,NW,6.9,-,N/A,,Scattered Clouds,310,2013-02-06 00:56:00
5:56 PM,53.1,45.0,74,30.13,10.0,Calm,Calm,-,N/A,,Scattered Clouds,0,2013-02-06 01:56:00
6:29 PM,51.8,44.6,76,30.13,10.0,North,3.5,-,N/A,,Mostly Cloudy,360,2013-02-06 02:29:00
6:54 PM,51.8,44.6,76,30.13,10.0,North,3.5,-,N/A,,Mostly Cloudy,360,2013-02-06 02:54:00
6:56 PM,51.1,45.0,80,30.14,10.0,Calm,Calm,-,N/A,,Mostly Cloudy,0,2013-02-06 02:56:00
7:56 PM,50.0,45.0,83,30.15,10.0,Calm,Calm,-,N/A,,Clear,0,2013-02-06 03:56:00
8:56 PM,48.9,45.0,86,30.16,10.0,Calm,Calm,-,N/A,,Clear,0,2013-02-06 04:56:00
9:56 PM,48.0,42.1,80,30.17,10.0,NW,4.6,-,N/A,,Clear,320,2013-02-06 05:56:00
10:56 PM,48.0,42.1,80,30.18,10.0,NW,3.5,-,N/A,,Clear,310,2013-02-06 06:56:00
11:56 PM,46.0,42.1,86,30.19,10.0,Calm,Calm,-,N/A,,Clear,0,2013-02-06 07:56:00